Station KECA2 - 9450460 - Ketchikan, AK Image indicating link to RSS feed of recent meteorological observations for station KECA2


Conditions at KECA2 as of
(9:00 am AKDT)
1700 GMT on 04/18/2024:
     

Click on the graph icon in the table below to see a time series plot of the last five days of that observation.

5-day plot - Wind Direction Wind Direction (WDIR):WNW ( 300 deg true )
5-day plot - Wind Speed Wind Speed (WSPD): 1.9 kts
5-day plot - Wind Gust Wind Gust (GST): 4.1 kts
5-day plot - Atmospheric Pressure Atmospheric Pressure (PRES):30.50 in
5-day plot - Pressure Tendency Pressure Tendency (PTDY):-0.02 in ( Falling )
5-day plot - Air Temperature Air Temperature (ATMP): 47.7 °F
5-day plot - Water Temperature Water Temperature (WTMP): 45.7 °F
5-day plot - Wind Speed at 10 Meters Wind Speed at 10 meters (WSPD10M): 1.9 kts
5-day plot - Wind Speed at 20 Meters Wind Speed at 20 meters (WSPD20M): 3.9 kts
5-day plot -  Wind Speed, Wind Gust and Atmospheric Pressure Combined plot of Wind Speed, Gust, and Air Pressure
NOS Water Level Observation Network Water Level
Previous observations
TIME
(AKDT)
5-day plot - Wind Direction
WDIR
 
5-day plot - Wind Speed
WSPD
kts
5-day plot - Wind Gust
GST
kts
5-day plot - Wave Height
WVHT
ft
5-day plot - Dominant Wave Period
DPD
sec
5-day plot - Average Wave Period
APD
sec
5-day plot - Mean Wave Direction
MWD
 
5-day plot - Atmospheric Pressure
PRES
in
5-day plot - Pressure Tendency
PTDY
in
5-day plot - Air Temperature
ATMP
°F
5-day plot - Water Temperature
WTMP
°F
5-day plot - Dew Point
DEWP
°F
5-day plot - Salinity
SAL
psu
5-day plot - Visibility
VIS
nmi
5-day plot - Tide (above MLLW)
TIDE
ft
2024-04-18 08:54 amWNW 1.0 1.9----30.50- 46.9 45.7----
2024-04-18 08:48 amWNW 2.9 4.1----30.50- 45.0 45.9----
2024-04-18 08:42 am NW 1.0 1.9----30.50- 45.3 45.9----
2024-04-18 08:36 amWNW 1.0 1.9----30.50- 45.3 45.9----
2024-04-18 08:30 am W 1.9 1.9----30.50- 44.2 45.9----
2024-04-18 08:24 amWSW 1.0 1.9----30.50- 43.9 45.9----
2024-04-18 08:18 am SW 1.0 2.9----30.51- 43.7 45.9----
2024-04-18 08:12 am- 0.0 1.0----30.51- 44.6 45.9----
2024-04-18 08:06 am- 0.0 1.9----30.51- 43.9 45.9----
2024-04-18 08:00 am NW 1.0 1.9----30.51-0.01 43.7 45.9----
2024-04-18 07:54 amNNE 1.0 1.9----30.51- 42.1 45.9----
2024-04-18 07:48 am- 0.0 1.9----30.51- 42.1 45.9----
2024-04-18 07:42 am W 1.0 1.9----30.51- 41.2 45.9----
2024-04-18 07:36 am- 0.0 1.9----30.51- 40.3 45.9----
2024-04-18 07:30 am- 0.0 1.0----30.52- 41.0 45.9----
2024-04-18 07:24 amENE 1.0 1.9----30.52- 39.4 45.7----
2024-04-18 07:18 am- 0.0 1.9----30.52- 38.1 45.7----
2024-04-18 07:12 am- 0.0 1.0----30.52- 36.9 45.7----
2024-04-18 07:06 am- 0.0 1.9----30.52- 36.5 45.7----
2024-04-18 07:00 am- 0.0 1.0----30.52-0.01 36.0 45.7----
2024-04-18 06:54 am- 0.0 2.9----30.52- 36.0 45.7----
2024-04-18 06:48 am- 0.0 2.9------------
2024-04-18 06:42 am- 0.0 2.9------------
2024-04-18 06:36 amWNW 1.0 1.9------------
2024-04-18 06:30 am W 1.0 1.9----30.52- 35.6 45.9----
2024-04-18 06:24 am- 0.0 1.9----30.52- 36.0 45.9----
2024-04-18 06:18 am- 0.0 1.9----30.52- 35.6 45.9----
2024-04-18 06:12 am- 0.0 1.9----30.52- 35.6 45.9----
2024-04-18 06:06 am NE 1.0 2.9----30.52- 35.4 45.9----
2024-04-18 06:00 am NE 1.0 2.9----30.52+0.00 35.4 45.9----
2024-04-18 05:54 amNNW 1.0 1.9----30.52- 35.4 45.9----
2024-04-18 05:48 am- 0.0 1.9----30.52- 35.1 45.9----
2024-04-18 05:42 am- 0.0 1.0----30.52- 35.2 45.9----
2024-04-18 05:36 am- 0.0 1.0----30.52- 35.2 45.9----
2024-04-18 05:30 am- 0.0 1.0----30.52- 35.2 45.9----
2024-04-18 05:24 am- 0.0 1.0----30.52- 35.4 45.9----
2024-04-18 05:18 am- 0.0 1.0----30.52- 35.4 45.9----
2024-04-18 05:12 am- 0.0 2.9----30.52- 35.4 45.9----
2024-04-18 05:06 am W 1.9 1.9----30.52- 35.6 45.9----
2024-04-18 05:00 am- 0.0 0.0----30.52+0.00 35.6 45.9----
2024-04-18 04:54 am- 0.0 1.0----30.52- 35.6 45.9----
2024-04-18 04:48 am- 0.0 1.9----30.52- 35.8 45.9----
2024-04-18 04:42 am- 0.0 1.0----30.52- 35.8 45.9----
2024-04-18 04:36 am- 0.0 1.9----30.52- 36.0 45.9----
2024-04-18 04:30 am- 0.0 1.0----30.52- 36.0 45.9----
2024-04-18 04:24 am- 0.0 1.0----30.52- 36.0 45.9----
2024-04-18 04:18 am- 0.0 1.9----30.53- 35.8 45.9----
2024-04-18 04:12 am NW 1.0 2.9----30.53- 36.0 45.9----
2024-04-18 04:06 am NW 1.0 2.9----30.53- 36.1 46.0----
2024-04-18 04:00 am- 0.0 1.9----30.53+0.00 36.1 46.0----
2024-04-18 03:54 am W 1.0 1.9----30.53- 35.8 46.0----
2024-04-18 03:48 am- 0.0 1.9----30.53- 36.0 46.0----
2024-04-18 03:42 am- 0.0 1.9----30.53- 36.3 46.0----
2024-04-18 03:36 am- 0.0 1.0----30.53- 36.1 46.0----
2024-04-18 03:30 am- 0.0 1.0----30.53- 36.7 46.0----
2024-04-18 03:24 am- 0.0 1.0----30.53- 36.5 46.0----
2024-04-18 03:18 am- 0.0 1.0----30.53- 36.3 46.0----
2024-04-18 03:12 am- 0.0 1.0----30.53- 36.5 46.0----
2024-04-18 03:06 am- 0.0 1.9----30.53- 36.1 45.9----
2024-04-18 03:00 am- 0.0 0.0----30.53+0.00 36.5 46.0----
2024-04-18 02:54 am- 0.0 1.0----30.53- 36.5 46.0----
2024-04-18 02:48 am- 0.0 1.0----30.53- 36.7 46.0----
2024-04-18 02:42 am- 0.0 0.0----30.53- 37.0 46.0----
2024-04-18 02:36 am- 0.0 1.0----30.53- 36.5 46.0----
2024-04-18 02:30 am- 0.0 1.0----30.53- 36.9 45.9----
2024-04-18 02:24 am- 0.0 1.9----30.53- 37.0 45.9----
2024-04-18 02:18 am- 0.0 0.0----30.53- 37.0 45.9----
2024-04-18 02:12 am- 0.0 0.0----30.53- 36.9 45.9----
2024-04-18 02:06 am- 0.0 0.0----30.53- 37.2 45.9----
2024-04-18 02:00 am- 0.0 0.0----30.53+0.00 37.6 45.9----
2024-04-18 01:54 am- 0.0 1.0----30.53- 37.6 45.9----
2024-04-18 01:48 am- 0.0 1.0----30.53- 37.0 45.9----
2024-04-18 01:42 am- 0.0 1.0----30.53- 37.2 45.9----
2024-04-18 01:36 am- 0.0 1.0----30.53- 37.2 45.9----
2024-04-18 01:30 am- 0.0 1.0----30.53- 37.0 45.9----
2024-04-18 01:24 am- 0.0 1.0----30.53- 37.2 45.9----
2024-04-18 01:18 am- 0.0 0.0----30.53- 37.2 45.9----
2024-04-18 01:12 am- 0.0 1.0----30.53- 37.4 45.9----
2024-04-18 01:06 am- 0.0 1.0----30.53- 37.2 45.9----
2024-04-18 01:00 am- 0.0 1.9----30.53+0.00 37.4 45.9----
2024-04-18 12:54 am- 0.0 1.0----30.53- 37.9 45.9----
2024-04-18 12:48 am- 0.0 0.0----30.53- 38.3 45.9----
2024-04-18 12:42 am- 0.0 1.0----30.53- 38.7 45.7----
2024-04-18 12:36 am- 0.0 0.0----30.53- 38.3 45.7----
2024-04-18 12:30 am- 0.0 1.0----30.53- 38.5 45.7----
2024-04-18 12:24 am W 1.0 1.9----30.53- 38.3 45.7----
2024-04-18 12:18 am- 0.0 1.0----30.53- 38.5 45.7----
2024-04-18 12:12 am- 0.0 1.0----30.53- 39.4 45.7----
2024-04-18 12:06 am- 0.0 1.0----30.53- 39.2 45.7----
2024-04-18 12:00 am- 0.0 1.0----30.53+0.00 39.6 45.9----
2024-04-17 11:54 pm- 0.0 1.0----30.53- 39.9 45.9----
2024-04-17 11:48 pm- 0.0 1.9----30.53- 40.3 45.9----
2024-04-17 11:42 pm- 0.0 1.9----30.53- 40.6 45.9----
2024-04-17 11:36 pm- 0.0 1.9----30.53- 40.6 45.9----
2024-04-17 11:30 pm- 0.0 1.0----30.53- 41.0 45.9----
2024-04-17 11:24 pm- 0.0 1.0----30.53- 40.6 45.7----
2024-04-17 11:18 pm- 0.0 0.0----30.53- 41.4 45.7----
2024-04-17 11:12 pm- 0.0 1.0----30.53- 42.1 45.7----
2024-04-17 11:06 pm- 0.0 1.0----30.53- 42.3 45.7----
2024-04-17 11:00 pm- 0.0 1.9----30.53+0.02 42.3 45.7----
2024-04-17 10:54 pm W 1.0 1.9----30.53- 42.4 45.7----
2024-04-17 10:48 pm- 0.0 1.9----30.53- 43.0 45.9----
2024-04-17 10:42 pm S 1.0 1.9----30.53- 43.5 45.9----
2024-04-17 10:36 pm- 0.0 1.9----30.53- 43.7 45.9----
2024-04-17 10:30 pm SE 1.0 2.9----30.53- 43.9 45.9----
2024-04-17 10:24 pm SE 1.9 4.1----30.53- 44.2 45.9----
2024-04-17 10:18 pm- 0.0 1.9----30.53- 45.1 46.0----
2024-04-17 10:12 pm- 0.0 2.9----30.53- 45.5 46.0----
2024-04-17 10:06 pm- 0.0 1.9----30.53- 45.7 46.0----
2024-04-17 10:00 pm- 0.0 1.9----30.53+0.02 45.5 46.0----
2024-04-17 09:54 pm- 0.0 1.0----30.53- 45.9 46.0----
2024-04-17 09:48 pmNNE 1.0 1.9----30.53- 46.0 46.0----
2024-04-17 09:42 pm E 1.0 2.9----30.53- 45.5 46.0----
2024-04-17 09:36 pm- 0.0 1.0----30.53- 46.0 46.0----
2024-04-17 09:30 pm- 0.0 1.9----30.53- 46.6 46.0----
2024-04-17 09:24 pmNNE 1.0 1.9----30.53- 46.2 46.2----
2024-04-17 09:18 pm E 1.0 1.9----30.53- 46.4 46.2----
2024-04-17 09:12 pm E 1.9 1.9----30.53- 46.6 46.2----
2024-04-17 09:06 pm- 0.0 1.0----30.53- 46.8 46.4----
2024-04-17 09:00 pm- 0.0 1.9----30.53+0.01 46.8 46.2----
2024-04-17 08:54 pm SE 1.0 1.9----30.53- 46.9 46.2----
2024-04-17 08:48 pmESE 1.0 1.9----30.53- 47.1 46.2----
2024-04-17 08:42 pm- 0.0 1.9----30.53- 47.8 46.2----
2024-04-17 08:36 pm- 0.0 1.0----30.53- 48.0 46.2----
2024-04-17 08:30 pm- 0.0 1.0----30.52- 48.2 46.2----
2024-04-17 08:24 pm- 0.0 1.0----30.52- 48.7 46.2----
2024-04-17 08:18 pm- 0.0 1.9----30.52- 49.1 46.2----
2024-04-17 08:12 pm E 1.0 2.9----30.52- 49.3 46.2----
2024-04-17 08:06 pm E 1.9 2.9----30.52- 49.1 46.2----
2024-04-17 08:00 pm- 0.0 1.0----30.51-0.01 50.0 46.2----
2024-04-17 07:54 pm- 0.0 1.0----30.51- 50.4 46.2----
2024-04-17 07:48 pm- 0.0 1.0----30.51- 51.4 46.2----
2024-04-17 07:42 pm- 0.0 1.9----30.51- 52.5 46.2----
2024-04-17 07:36 pmNNW 1.9 5.1----30.51- 53.4 46.2----
2024-04-17 07:30 pm NW 2.9 5.1----30.51- 54.7 46.2----
2024-04-17 07:24 pm- 0.0 6.0----30.51- 54.9 46.4----
2024-04-17 07:18 pm NW 1.9 6.0----30.51- 55.8 46.4----
2024-04-17 07:12 pm N 1.9 6.0----30.51- 55.9 46.4----
2024-04-17 07:06 pmWNW 5.1 9.9----30.51- 53.8 46.4----
2024-04-17 07:00 pmWNW 8.9 11.1----30.51-0.02 53.8 46.4----
2024-04-17 06:54 pmWNW 8.9 12.0----30.51- 54.1 46.6----
2024-04-17 06:48 pmWNW 9.9 12.0----30.51- 53.4 46.6----
2024-04-17 06:42 pmWNW 7.0 9.9----30.51- 54.0 46.6----
2024-04-17 06:36 pmWNW 9.9 11.1----30.51- 54.9 46.8----
2024-04-17 06:30 pmWNW 9.9 11.1----30.51- 55.2 46.8----
2024-04-17 06:24 pmWNW 8.9 11.1----30.51- 55.4 46.8----
2024-04-17 06:18 pmWNW 8.9 9.9----30.51- 55.6 46.6----
2024-04-17 06:12 pmWNW 8.9 11.1----30.52- 55.6 46.6----
2024-04-17 06:06 pmWNW 8.0 9.9----30.52- 55.8 46.6----
2024-04-17 06:00 pmWNW 8.0 8.9----30.52-0.03 56.7 46.4----
2024-04-17 05:54 pmWNW 5.1 8.0----30.52- 55.6 46.4----
2024-04-17 05:48 pmWNW 6.0 8.9----30.52- 56.1 46.4----
2024-04-17 05:42 pmWNW 8.9 9.9----30.52- 55.6 46.4----
2024-04-17 05:36 pmWNW 8.0 9.9----30.52- 54.9 46.4----
2024-04-17 05:30 pmWNW 8.9 9.9----30.52- 55.2 46.4----
2024-04-17 05:24 pmWNW 8.9 9.9----30.53- 55.4 46.4----
2024-04-17 05:18 pmWNW 6.0 8.9----30.53- 55.2 46.4----
2024-04-17 05:12 pmWNW 8.0 9.9----30.53- 55.4 46.4----
2024-04-17 05:06 pmWNW 8.0 8.9----30.53- 55.2 46.4----
2024-04-17 05:00 pmWNW 8.0 8.9----30.53-0.03 55.8 46.4----
2024-04-17 04:54 pmWNW 8.0 8.9----30.53- 55.4 46.2----
2024-04-17 04:48 pm NW 6.0 8.9----30.53- 55.8 46.0----
2024-04-17 04:42 pmWNW 6.0 7.0----30.53- 56.8 46.0----
2024-04-17 04:36 pmWNW 6.0 8.0----30.53- 57.4 46.2----
2024-04-17 04:30 pmWNW 7.0 9.9----30.53- 56.1 46.2----
2024-04-17 04:24 pm NW 8.9 9.9----30.53- 56.1 46.2----
2024-04-17 04:18 pmWNW 5.1 8.0----30.53- 57.4 46.2----
2024-04-17 04:12 pmWNW 1.0 6.0----30.53- 58.6 46.2----
2024-04-17 04:06 pm SE 5.1 8.0----30.53- 57.7 46.2----
2024-04-17 04:00 pm SE 5.1 7.0----30.53-0.04 58.1 46.2----
2024-04-17 03:54 pmSSE 7.0 8.0----30.53- 57.6 46.0----
2024-04-17 03:48 pmSSE 5.1 6.0----30.53- 57.6 46.0----
2024-04-17 03:42 pm S 2.9 8.9----30.53- 58.8 46.0----
2024-04-17 03:36 pmSSE 2.9 4.1----30.54- 58.6 46.0----
2024-04-17 03:30 pm S 1.0 5.1----30.54- 58.5 46.0----
2024-04-17 03:24 pmSSE 5.1 6.0----30.54- 56.7 46.0----
2024-04-17 03:18 pm S 2.9 6.0----30.54- 56.8 46.0----
2024-04-17 03:12 pm SE 5.1 6.0----30.54- 56.8 46.0----
2024-04-17 03:06 pmSSE 5.1 8.0----30.54- 57.4 46.0----
2024-04-17 03:00 pmSSE 6.0 8.0----30.54-0.02 56.8 46.0----
2024-04-17 02:54 pmSSE 7.0 8.9----30.55- 56.8 46.0----
2024-04-17 02:48 pmSSE 8.9 9.9----30.55- 57.0 46.0----
2024-04-17 02:42 pmSSE 8.9 9.9----30.55- 56.8 46.0----
2024-04-17 02:36 pmSSE 8.0 8.9----30.55- 56.7 46.0----
2024-04-17 02:30 pmSSE 8.0 8.9----30.55- 56.8 46.0----
2024-04-17 02:24 pmSSE 8.0 8.9----30.55- 56.5 46.0----
2024-04-17 02:18 pmSSE 8.9 11.1----30.55- 57.0 46.2----
2024-04-17 02:12 pmSSE 8.0 9.9----30.55- 57.0 46.2----
2024-04-17 02:06 pm S 2.9 5.1----30.55- 56.7 46.2----
2024-04-17 02:00 pm NW 5.1 8.0----30.55-0.02- 46.2----
2024-04-17 01:54 pmWNW 5.1 7.0----30.56-- 46.2----
2024-04-17 01:48 pm NW 6.0 8.0----30.56- 54.7 46.0----
2024-04-17 01:42 pm NW 7.0 8.0----30.56- 54.0 46.0----
2024-04-17 01:36 pm NW 7.0 8.0----30.56- 53.4 46.0----
2024-04-17 01:30 pm NW 7.0 8.0----30.56- 53.4 46.0----
2024-04-17 01:24 pm NW 7.0 8.0----30.56- 53.2 46.0----
2024-04-17 01:18 pm NW 7.0 8.0----30.56- 52.5 46.0----
2024-04-17 01:12 pm NW 7.0 8.0----30.56- 52.2 46.0----
2024-04-17 01:06 pm NW 6.0 7.0----30.56- 51.8 46.0----
2024-04-17 01:00 pm NW 6.0 8.9----30.57-0.01 51.4 46.0----
2024-04-17 12:54 pm NW 7.0 9.9----30.57- 50.9 46.0----
2024-04-17 12:48 pmWNW 8.9 9.9----30.57- 50.2 46.0----
2024-04-17 12:42 pmWNW 8.9 11.1----30.57- 50.4 46.0----
2024-04-17 12:36 pmWNW 8.9 9.9----30.57- 50.4 46.0----
2024-04-17 12:30 pmWNW 8.9 9.9----30.57- 50.7 46.0----
2024-04-17 12:24 pm NW 7.0 8.0----30.57- 51.6 45.9----
2024-04-17 12:18 pm NW 7.0 8.0----30.57- 52.2 45.9----
2024-04-17 12:12 pm NW 5.1 6.0----30.57- 53.6 45.9----
2024-04-17 12:06 pm NW 4.1 5.1----30.57- 54.7 45.9----
2024-04-17 12:00 pmWNW 2.9 2.9----30.57-0.01 57.4 45.9----
2024-04-17 11:54 am NW 1.9 4.1----30.57- 55.9 45.9----
2024-04-17 11:48 amWNW 2.9 2.9----30.57- 55.6 45.9----
2024-04-17 11:42 amWNW 2.9 2.9----30.57- 55.2 45.9----
2024-04-17 11:36 amWNW 2.9 2.9----30.57- 55.4 45.9----
2024-04-17 11:30 am NW 1.9 4.1----30.57- 54.7 45.9----
2024-04-17 11:24 amWNW 1.9 4.1----30.57- 53.8 45.9----
2024-04-17 11:18 am NW 4.1 5.1----30.57- 52.5 45.9----
2024-04-17 11:12 am NW 4.1 5.1----30.57- 51.8 45.9----
2024-04-17 11:06 am NW 4.1 5.1----30.58- 52.0 45.9----
2024-04-17 11:00 amWNW 2.9 2.9----30.58+0.00 52.3 45.9----
2024-04-17 10:54 amWNW 1.0 1.9----30.58- 51.8 45.9----
2024-04-17 10:48 am- 0.0 1.0----30.58- 48.9 45.9----
2024-04-17 10:42 am- 0.0 1.0----30.58- 49.5 45.9----
2024-04-17 10:36 am- 0.0 1.9----30.58- 48.2 45.9----
2024-04-17 10:30 am S 1.0 1.9----30.58- 48.0 45.9----
2024-04-17 10:24 am- 0.0 2.9----30.58- 48.2 45.9----
2024-04-17 10:18 am- 0.0 1.9----30.58- 47.8 45.9----
2024-04-17 10:12 amSSE 1.0 2.9----30.58- 47.1 45.9----
2024-04-17 10:06 amSSE 1.9 2.9----30.58- 46.6 45.9----
2024-04-17 10:00 am S 1.0 2.9----30.58+0.00 46.0 45.9----
2024-04-17 09:54 am- 0.0 1.9----30.58- 45.7 45.9----
2024-04-17 09:48 am- 0.0 1.9----30.58- 46.0 45.9----
2024-04-17 09:42 am- 0.0 1.9----30.58- 46.0 45.9----
2024-04-17 09:36 am E 1.9 2.9----30.58- 45.0 45.9----
2024-04-17 09:30 am SE 1.0 1.9----30.58- 45.0 45.9----
2024-04-17 09:24 am SE 1.0 1.9----30.58- 45.0 45.9----
2024-04-17 09:18 am- 0.0 1.0----30.58- 44.8 45.7----
2024-04-17 09:12 am- 0.0 1.0----30.58- 44.6 45.7----
2024-04-17 09:06 amESE 1.0 1.9----30.58- 44.2 45.7----
2024-04-17 09:00 am- 0.0 1.9----30.58+0.01 44.2 45.7----
2024-04-17 08:54 am- 0.0 1.0----30.58- 42.6 45.7----